Sioux Falls, SD

2:22 AM CST on December 10, 2016 (GMT -0600)
Foss

Weather History for KFSD - June, 2014

Change the Weather History Date:

Friday, June 20, 2014

  Actual Average Record
Temperature  
Mean Temperature 73 °F 69 °F  
Max Temperature 90 °F 81 °F 103 °F (1988)
Min Temperature 55 °F 58 °F 40 °F (1969)
Degree Days  
Heating Degree Days 0 1  
Month to date heating degree days 32 45  
Since 1 June heating degree days 32 45  
Since 1 July heating degree days 8320 7700  
Cooling Degree Days 8 5  
Month to date cooling degree days 67 70  
Year to date cooling degree days 120 106  
Since 1 June cooling degree days 67 70  
Growing Degree Days 22 (Base 50)    
Moisture  
Dew Point 58 °F    
Average Humidity 60    
Maximum Humidity 93    
Minimum Humidity 27    
Precipitation  
Precipitation 0.01 in 0.13 in 2.09 in (2011)
Month to date precipitation 13.13 2.65  
Year to date precipitation 18.11 11.98  
Snow  
Snow 0.00 in 0.00 in 0.00 in ()
Month to date snowfall T 0.0  
Since 1 June snowfall T 0.0  
Since 1 July snowfall 45.3 44.5  
Snow Depth 0.00 in    
Sea Level Pressure  
Sea Level Pressure 29.91 in    
Wind  
Wind Speed 7 mph (SW)    
Max Wind Speed 20 mph    
Max Gust Speed 25 mph    
Visibility 10 miles    
Events      
T = Trace of Precipitation, MM = Missing Value Source: NWS Daily Summary

Daily Weather History Graph

Daily Weather History Graph

Search for Another Location

Airport or City:

Trip Planner

Search our weather history database for the weather conditions in past years. The results will help you decide how hot, cold, wet, or windy it might be!

Date:

Astronomy

Jun. 20, 2014 Rise Set
Actual Time 5:45 AM CDT 9:11 PM CDT
Civil Twilight 5:09 AM CDT 9:47 PM CDT
Nautical Twilight 4:22 AM CDT 10:34 PM CDT
Astronomical Twilight 3:23 AM CDT 11:34 PM CDT
Moon 1:35 AM CDT (6/20) 2:38 PM CDT (6/20)
Length of Visible Light 16h 37m
Length of Day
15h 26m
Last Quarter, 40% of the Moon is Illuminated
Jun 20
Last Quarter
Jun 27
New
Jul 5
First Quarter
Jul 12
Full
Jul 18
Last Quarter

Hourly Weather History & Observations

Time (CDT) Temp. Heat Index Dew Point Humidity Pressure Visibility Wind Dir Wind Speed Gust Speed Precip Events Conditions
12:56 AM 64.9 °F - 57.0 °F 75% 29.94 in 10.0 mi NW 4.6 mph - N/A   Clear
1:56 AM 62.1 °F - 57.0 °F 84% 29.95 in 10.0 mi Calm Calm - N/A   Clear
2:56 AM 59.0 °F - 55.9 °F 90% 29.95 in 10.0 mi Calm Calm - N/A   Clear
3:56 AM 57.9 °F - 55.9 °F 93% 29.95 in 10.0 mi Calm Calm - N/A   Clear
4:56 AM 57.9 °F - 55.9 °F 93% 29.95 in 10.0 mi Calm Calm - N/A   Scattered Clouds
5:56 AM 57.0 °F - 55.0 °F 93% 29.96 in 10.0 mi Calm Calm - N/A   Partly Cloudy
6:56 AM 61.0 °F - 57.9 °F 90% 29.98 in 10.0 mi Calm Calm - N/A   Partly Cloudy
7:56 AM 66.9 °F - 57.9 °F 73% 29.96 in 10.0 mi Calm Calm - N/A   Partly Cloudy
8:56 AM 72.0 °F - 60.1 °F 66% 29.94 in 10.0 mi East 4.6 mph - N/A   Partly Cloudy
9:56 AM 75.9 °F - 55.9 °F 50% 29.94 in 10.0 mi South 9.2 mph - N/A   Scattered Clouds
10:56 AM 77.0 °F - 60.1 °F 56% 29.92 in 10.0 mi SSW 12.7 mph - N/A   Mostly Cloudy
11:56 AM 81.0 °F 81.7 °F 61.0 °F 50% 29.90 in 10.0 mi South 11.5 mph - 0.01 in   Scattered Clouds
12:56 PM 82.9 °F 84.4 °F 64.0 °F 53% 29.90 in 10.0 mi SSW 16.1 mph - N/A   Partly Cloudy
1:56 PM 86.0 °F 87.6 °F 64.9 °F 49% 29.88 in 10.0 mi SSW 17.3 mph 20.7 mph N/A   Partly Cloudy
2:56 PM 88.0 °F 88.7 °F 63.0 °F 43% 29.87 in 10.0 mi WSW 10.4 mph 18.4 mph N/A   Partly Cloudy
3:56 PM 89.1 °F 87.7 °F 57.0 °F 34% 29.85 in 10.0 mi WSW 10.4 mph 23.0 mph N/A   Partly Cloudy
4:56 PM 89.6 °F 87.3 °F 53.6 °F 29% 29.87 in 10.0 mi WNW 13.8 mph 21.9 mph N/A   Scattered Clouds
5:56 PM 89.1 °F - 51.1 °F 27% 29.85 in 10.0 mi NW 12.7 mph - N/A   Scattered Clouds
6:56 PM 88.0 °F - 51.1 °F 28% 29.86 in 10.0 mi WNW 6.9 mph - N/A   Scattered Clouds
7:56 PM 86.0 °F 84.5 °F 55.0 °F 35% 29.86 in 10.0 mi NW 5.8 mph - N/A   Mostly Cloudy
8:56 PM 75.9 °F - 64.0 °F 67% 29.84 in 10.0 mi South 5.8 mph - N/A   Scattered Clouds
9:56 PM 72.0 °F - 64.0 °F 76% 29.83 in 10.0 mi South 4.6 mph - N/A   Scattered Clouds
10:56 PM 72.0 °F - 64.9 °F 78% 29.88 in 10.0 mi SSW 5.8 mph - N/A   Mostly Cloudy
11:56 PM 70.0 °F - 64.9 °F 84% 29.86 in 10.0 mi SSW 3.5 mph - N/A   Overcast